AO-07 1 07530U 74089B 18221.16465376 -.00000041 00000-0 23861-4 0 9995 2 07530 101.6914 187.7007 0011678 232.1499 196.5976 12.53633790 1230 UO-11 1 14781U 84021B 18221.70772311 .00000031 00000-0 10012-4 0 9990 2 14781 97.6456 255.6297 0006950 266.9922 93.0497 14.83021999852375 LO-19 1 20442U 90005G 18220.86322199 -.00000020 00000-0 90159-5 0 9991 2 20442 098.6115 159.0369 0011819 000.8409 359.2793 14.32901505491370 HUBBLE 1 20580U 90037B 18221.16930031 .00000320 00000-0 85871-5 0 9990 2 20580 28.4692 124.8557 0002615 354.2985 159.3914 15.09073553353483 MET-2/21 1 22782U 93055A 18220.96381826 .00000040 00000-0 22376-4 0 9997 2 22782 082.5470 052.0444 0021829 342.2037 171.3851 13.83811304259207 AO-27 1 22825U 93061C 18221.88612997 -.00000016 00000-0 11739-4 0 9995 2 22825 98.8671 198.9874 0008231 182.8345 177.2791 14.30036273297248 IO-26 1 22826U 93061D 18221.89051781 -.00000003 00000-0 16648-4 0 9995 2 22826 98.8610 199.0229 0008971 172.5633 187.5683 14.30368187297432 FO-29 1 24278U 96046B 18220.80385413 -.00000033 00000-0 40548-5 0 9996 2 24278 98.5158 52.3034 0349917 334.5698 23.8574 13.53085075 85356 NOAA-15 1 25338U 98030A 18221.73313354 .00000028 00000-0 30570-4 0 9993 2 25338 98.7680 238.1973 0011620 74.0419 286.2040 14.25869922 52657 GO-32 1 25397U 98043D 18221.86745134 -.00000034 00000-0 43256-5 0 9995 2 25397 98.6516 161.4247 0000880 163.2724 196.8484 14.23649374 43368 ISS 1 25544U 98067A 18222.05156756 .00001108 00000-0 24256-4 0 9993 2 25544 51.6416 110.2592 0005763 44.5593 95.2967 15.53817336126892 NO-44 1 26931U 01043C 18221.14142367 -.00000017 00000-0 25422-4 0 9999 2 26931 67.0511 92.7716 0007812 266.7670 93.2537 14.30512938880121 SO-50 1 27607U 02058C 18220.67293713 -.00000034 00000-0 16058-4 0 9990 2 27607 64.5552 289.5993 0070555 317.1451 42.4164 14.75469025840703 CO-55 1 27844U 03031E 18220.79654009 .00000044 00000-0 39722-4 0 9990 2 27844 98.6867 228.6766 0009035 213.6869 146.3735 14.22126550783678 CO-57 1 27848U 03031J 18221.82618545 .00000031 00000-0 34176-4 0 9998 2 27848 98.6954 230.1068 0008830 222.0493 138.0008 14.21729291783683 RS-22 1 27939U 03042A 18221.88309632 .00000069 00000-0 20959-4 0 9996 2 27939 97.9978 359.6527 0012455 344.5829 166.9193 14.66705471794680 NOAA-18 1 28654U 05018A 18221.73338571 .00000002 00000-0 26185-4 0 9998 2 28654 99.1413 258.2651 0013871 341.4940 18.5725 14.12382004681343 CO-58 1 28895U 05043F 18221.87636344 .00000080 00000-0 24166-4 0 9990 2 28895 97.9161 11.1782 0015493 258.6089 101.3373 14.63568716681726 Falconsat-3 1 30776U 07006E 18221.22553322 .00001602 00000-0 48024-4 0 9995 2 30776 35.4355 289.0509 0002520 166.1931 193.8864 15.34732479632475 CO-65 1 32785U 08021C 18221.83928971 .00000152 00000-0 22049-4 0 9996 2 32785 97.5469 231.4555 0012108 214.9750 145.0674 14.88155424557154 AAUSAT2 1 32788U 08021F 18220.51695143 -.00000025 00000-0 27060-5 0 9994 2 32788 097.5193 244.8369 0012208 165.8358 194.3208 14.94409057557893 DO-64 1 32789U 08021G 18221.12815538 .00000413 00000-0 32306-4 0 9993 2 32789 97.5080 274.5890 0014085 114.6369 245.6327 15.06203695559750 CO-66 1 32791U 08021J 18221.84023287 .00000226 00000-0 28425-4 0 9996 2 32791 97.5351 236.9339 0012966 193.1501 166.9382 14.90600272557501 RS-30 1 32953U 08025A 18221.80287848 .00000004 00000-0 -44448-4 0 9999 2 32953 82.5062 339.3325 0020120 94.0289 266.3091 12.43084822463433 PRISM 1 33493U 09002B 18220.73136351 -.00000063 00000-0 68896-7 0 9999 2 33493 98.1247 124.8295 0015451 138.8214 221.4204 14.96280044518208 NOAA-19 1 33591U 09005A 18221.77060028 .00000057 00000-0 55967-4 0 9997 2 33591 99.1459 200.8727 0014015 172.2085 187.9306 14.12299034489732 TISAT-1 1 36799U 10035E 18221.81031842 .00000262 00000-0 32724-4 0 9996 2 36799 98.1136 359.4705 0013053 38.1495 322.0644 14.90849002438147 JUGNU 1 37839U 11058B 18220.90809532 .00000290 00000-0 13076-4 0 9996 2 37839 19.9620 77.5581 0018947 108.0093 7.9549 14.12624870352832 SRMSAT 1 37841U 11058D 18221.83963083 .00000288 00000-0 12930-4 0 9999 2 37841 19.9720 122.2191 0011797 0.5411 56.2788 14.10611399352468 AO-71 1 37854U 11061E 18221.71175584 .00000329 00000-0 25614-4 0 9994 2 37854 101.7016 314.0851 0163013 274.7103 83.5509 15.05579508369884 HRBE 1 37855U 11061F 18221.07644001 .00000407 00000-0 29209-4 0 9990 2 37855 101.7142 310.6608 0175956 285.6874 72.4987 15.04564914369603 ALMASAT-1 1 38078U 12006B 18221.69578235 .00023305 39094-5 19687-3 0 9991 2 38078 69.4290 68.3499 0228062 24.4529 17.9380 15.43716356348906 HORYU-2 1 38340U 12025D 18220.62777702 .00000121 00000-0 25804-4 0 9996 2 38340 98.3641 244.1416 0012537 48.9445 311.2845 14.75583005334849 RS-40 1 38735U 12041C 18221.17483527 .00000032 00000-0 15735-3 0 9994 2 38735 82.4735 63.5771 0016476 196.1068 163.9490 12.42577155273600 BEESAT-3 1 39134U 13015E 18221.65128793 .00000679 00000-0 41415-4 0 9996 2 39134 64.8644 313.9445 0006068 221.0033 139.0639 15.19304657293022 BEESAT-2 1 39136U 13015G 18221.75011202 .00000628 00000-0 42348-4 0 9995 2 39136 64.8707 330.6104 0016942 234.8634 125.0905 15.16252126292719 ZACUBE-1 1 39417U 13066B 18221.15093295 .00000114 00000-0 20918-4 0 9998 2 39417 97.5845 246.9531 0058575 343.2175 16.7099 14.80961660254632 TRITON-1 1 39427U 13066M 18220.93252433 .00000146 00000-0 30963-4 0 9991 2 39427 097.6442 213.3743 0115622 090.3620 271.0836 14.67695448252122 GOMX-1 1 39430U 13066Q 18221.86225819 .00000112 00000-0 29017-4 0 9997 2 39430 97.7017 194.8850 0151880 160.5814 200.1261 14.59106259250983 LO-74 1 39440U 13066AA 18221.57212232 .00000168 00000-0 30335-4 0 9997 2 39440 97.6006 233.6341 0081089 23.2406 337.2438 14.75701578253796 AO-73 1 39444U 13066AE 18221.86164438 .00000186 00000-0 29391-4 0 9997 2 39444 97.5852 249.2186 0057505 335.9877 23.8657 14.81750895253603 SPROUT 1 39770U 14029E 18221.75719695 .00000426 00000-0 53836-4 0 9996 2 39770 97.8787 322.3666 0009752 40.4997 319.6907 14.86921525228323 DUCHIFAT-1 1 40021U 14033M 18220.76358275 .00000183 00000-0 24673-4 0 9992 2 40021 97.9140 139.5754 0013393 12.0182 348.1352 14.90354041224786 NANOSATCBR1 1 40024U 14033Q 18220.76361014 .00000192 00000-0 26075-4 0 9998 2 40024 97.9071 137.7130 0012712 14.6592 345.4992 14.89611116224706 EO-79 1 40025U 14033R 18221.71565381 .00000207 00000-0 28162-4 0 9994 2 40025 97.9024 136.9998 0012943 15.7133 344.4483 14.88749759224750 DTUSAT-2 1 40030U 14033W 18221.69478143 .00000166 00000-0 23935-4 0 9993 2 40030 97.8969 135.6050 0012283 11.4735 348.6760 14.88355549224693 EO-80 1 40032U 14033Y 18221.75495511 .00000164 00000-0 23818-4 0 9998 2 40032 97.8975 135.6673 0012238 11.9320 348.2184 14.88293422224695 ANTELSAT 1 40034U 14033AA 18221.69894892 .00000134 00000-0 27497-4 0 9992 2 40034 97.8038 96.3583 0059669 26.9716 333.4573 14.73951655222570 VELOX-1 1 40057U 14034E 18221.74394877 .00000176 00000-0 32358-4 0 9990 2 40057 98.2090 333.7320 0011804 150.8266 209.3609 14.77463702221554 DAURIA DX 1 1 40071U 14037C 18221.71994959 .00000059 00000-0 14987-4 0 9991 2 40071 98.3829 355.4915 0009174 143.3935 216.7905 14.81177865220927 UKUBE-1 1 40074U 14037F 18221.82917979 .00000162 00000-0 26694-4 0 9996 2 40074 98.3943 1.8205 0005122 132.7331 227.4325 14.83837270221259 HODOYOSHI-1 1 40299U 14070B 18221.74451848 .00000443 00000-0 21788-4 0 9992 2 40299 97.3762 302.5687 0014692 65.7616 32.7364 15.22971727208631 CHUBUSAT-1 1 40300U 14070C 18221.69727088 .00000425 00000-0 21775-4 0 9997 2 40300 97.3610 298.2443 0021667 76.4293 74.5237 15.21649283208414 QSAT-EOS 1 40301U 14070D 18221.73852493 .00001102 00000-0 46709-4 0 9999 2 40301 97.3572 299.8016 0027981 65.6490 33.7442 15.24921477208583 FIREBIRD FU3 1 40377U 15003B 18220.94346829 .00001990 00000-0 83993-4 0 9993 2 40377 99.0822 133.1416 0131802 55.4594 305.8994 15.17404950194322 FIREBIRD FU4 1 40378U 15003C 18221.78924230 .00002027 00000-0 85366-4 0 9993 2 40378 99.0823 134.2152 0131971 52.5491 308.7657 15.17417206194454 GRIFEX 1 40379U 15003D 18221.20050190 .00001414 00000-0 65090-4 0 9997 2 40379 99.0843 129.3882 0139118 67.8228 293.7694 15.14470376194122 NO-84 1 40654U 15025D 18221.23031493 .00002191 00000-0 42629-4 0 03759 2 40654 054.9906 156.5049 0151678 243.8458 114.6904 15.41472168064022 NO-83 1 40655U 15025E 18221.10892626 .00007995 00000-0 85513-4 0 04341 2 40655 054.9749 093.7966 0098669 282.6702 076.3353 15.59176604064534 DEORBITSAIL 1 40719U 15032E 18221.18088265 .00000274 00000-0 46709-4 0 9997 2 40719 97.9389 113.8203 0014998 235.2434 124.7365 14.76482207165999 NUDT-PHONESAT 1 40900U 15049B 18221.84158675 .00001395 00000-0 64967-4 0 9994 2 40900 97.4412 229.4806 0012800 194.1311 165.9569 15.21520447160070 XW-2A 1 40903U 15049E 18221.76212468 .00001320 00000-0 34386-4 0 9999 2 40903 97.3805 257.1442 0013728 189.8361 170.2618 15.40684084162051 XW-2C 1 40906U 15049H 18221.80941154 .00000404 00000-0 24943-4 0 9998 2 40906 97.4609 224.3225 0014383 198.0343 162.0381 15.15260643159619 XW-2D 1 40907U 15049J 18221.82245633 .00000438 00000-0 26653-4 0 9997 2 40907 97.4583 224.0264 0013812 195.3596 164.7219 15.15417070159625 LILACSAT-2 1 40908U 15049K 18221.82845025 .00000237 00000-0 16794-4 0 9991 2 40908 97.4697 223.3209 0015414 198.5998 161.4672 15.13553932159481 XW-2F 1 40910U 15049M 18221.72822216 .00000711 00000-0 39687-4 0 9993 2 40910 97.4582 225.3465 0014639 190.9772 169.1144 15.16643507159577 XW-2B 1 40911U 15049N 18221.84197296 .00000443 00000-0 26946-4 0 9996 2 40911 97.4618 224.6031 0013720 195.9103 164.1700 15.15359593159528 DCBB 1 40912U 15049P 18220.98045929 .00000715 00000-0 37475-4 0 9997 2 40912 97.4512 227.5651 0014974 180.5070 209.7289 15.18872749159688 TW-1C 1 40926U 15051B 18221.74443596 .00006140 00000-0 11170-3 0 9993 2 40926 97.1802 263.8508 0011470 81.5940 12.5733 15.49814710161607 TW-1A 1 40928U 15051D 18221.72335078 .00002031 00000-0 54642-4 0 9995 2 40928 97.1824 254.6495 0013314 122.8939 330.9944 15.38952629161018 IO-86 1 40931U 15052B 18221.08083852 .00000657 00000-0 25140-5 0 9993 2 40931 5.9976 132.8593 0013157 35.4112 324.7617 14.76580933154836 LQSat 1 40958U 15057A 18221.76065117 .00000006 00000-0 86819-5 0 9994 2 40958 97.9376 293.7155 0018466 161.0974 199.0921 14.73041374152737 AO-85 1 40967U 15058D 18221.60009697 -.00000036 00000-0 14841-4 0 04140 2 40967 064.7759 029.1121 0211376 297.4598 060.5154 14.75752899061539 ATHENOXAT-1 1 41168U 15077C 18221.61720286 .00001494 00000-0 44708-4 0 9991 2 41168 14.9876 349.2091 0011799 61.5851 317.3759 15.12887032146483 ChubuSat-2 1 41338U 16012B 18221.68262240 .00000269 00000-0 14205-4 0 9996 2 41338 31.0042 333.7628 0013919 243.6459 116.2748 15.00006472135877 ChubuSat-3 1 41339U 16012C 18221.68972968 .00000216 00000-0 99889-5 0 9996 2 41339 31.0126 332.2359 0013643 251.7383 108.1768 15.00191903135861 Horyu-4 1 41340U 16012D 18221.65270065 .00000377 00000-0 22010-4 0 9993 2 41340 31.0060 326.7246 0014156 264.1252 95.7770 15.01026771135939 OUFTI-1 1 41458U 16025C 18221.70145280 .00000968 00000-0 54691-4 0 9999 2 41458 98.1327 287.4039 0168350 328.8747 30.2583 15.04837629125485 e-st@r-II 1 41459U 16025D 18221.71816479 .00000871 00000-0 49894-4 0 9998 2 41459 98.1329 287.2403 0169534 329.3228 29.8167 15.04554097125472 AAUSAT4 1 41460U 16025E 18221.64451219 .00001107 00000-0 61388-4 0 9994 2 41460 98.1261 287.7517 0160482 325.1230 33.9588 15.06049961125531 LO-87 1 41557U 16033B 18221.80908126 .00000776 00000-0 31316-4 0 9991 2 41557 97.4359 305.9090 0013211 334.8619 25.1976 15.27787730122348 NuSat2 1 41558U 16033C 18221.79813158 .00000965 00000-0 37729-4 0 9994 2 41558 97.4381 306.0466 0012292 332.9740 27.0858 15.28279950122335 Lapan A3 1 41603U 16040E 18221.81181916 .00000136 00000-0 95875-5 0 9993 2 41603 97.4080 282.3486 0014974 56.7323 51.1572 15.19590315118222 Swayam 1 41607U 16040J 18221.62729525 .00001047 00000-0 48270-4 0 9998 2 41607 97.4093 283.8638 0015111 55.7984 304.4682 15.22379464118232 Pratham 1 41783U 16059A 18221.82859026 .00000025 00000-0 14218-4 0 9995 2 41783 98.1136 282.5100 0032265 287.8848 71.8836 14.62935828 99801 AlSat 1N 1 41789U 16059G 18221.74078927 .00000038 00000-0 16394-4 0 9996 2 41789 98.1159 283.7563 0026965 279.6726 80.1430 14.64170494 99852 ScatSat 1 41790U 16059H 18221.76075670 .00000008 00000-0 13343-4 0 9990 2 41790 98.2554 268.5658 0016970 288.9287 71.0068 14.50863990 98951 TY-1 1 41844U 16066D 18221.78844907 .00000852 00000-0 38717-4 0 9996 2 41844 97.4056 228.0450 0014627 203.1588 152.2822 15.23391297 97035 Pegasus-1 1 41846U 16066F 18220.88558287 .00000212 00000-0 41701-4 0 9998 2 41846 098.7510 250.4153 0369364 090.5681 273.7832 14.37375000091478 CAS-2T 1 41847U 16066G 18220.71948244 .00000059 00000-0 18658-4 0 9991 2 41847 98.7469 250.7111 0367343 88.4424 275.8799 14.37911126 91879 TO-89 1 41932U 98067KU 18220.99160728 .00036219 00000-0 19581-3 0 9992 2 41932 51.6311 68.0165 0002690 65.4978 294.6304 15.79736085 89107 AOBA-V3LOX3 1 41935U 98067KX 18220.96915755 .00062227 00000-0 25187-3 0 9997 2 41935 51.6341 61.7929 0001316 66.0382 294.0760 15.85689278 89288 EO-88 1 42017U 17008BX 18220.73674151 .00001022 00000-0 44386-4 0 9991 2 42017 097.4446 285.4758 0006288 179.8330 180.2911 15.24585060082079 HAVELSAT 1 42700U 98067LH 18221.65454521 .00025705 00000-0 18107-3 0 9998 2 42700 51.6353 80.7745 0004050 103.3853 256.7598 15.73912365 70439 SOMP2 1 42701U 98067LJ 18221.80713938 .00023340 00000-0 17367-3 0 9996 2 42701 51.6349 81.8060 0003972 100.0396 260.1051 15.72687099 70429 PHOENIX 1 42706U 98067LP 18221.63179081 .00017605 00000-0 14120-3 0 9998 2 42706 51.6356 83.6491 0001311 69.1284 290.9854 15.71114896 70304 X-CubeSat 1 42707U 98067LQ 18221.80273121 .00029190 00000-0 19789-3 0 9996 2 42707 51.6309 79.4236 0001093 83.2515 276.8609 15.74733931 70361 qbee 1 42708U 98067LR 18221.78251743 .00026925 00000-0 19139-3 0 9992 2 42708 51.6362 80.8821 0001244 87.0687 273.0454 15.73677386 70308 ZA-AeroSat 1 42713U 98067LU 18221.70736928 .00017169 00000-0 14621-3 0 9994 2 42713 51.6349 86.3938 0001877 39.9053 320.2081 15.69684991 69937 LINK 1 42714U 98067LV 18221.81421704 .00099378 00000-0 34085-3 0 9998 2 42714 51.6219 68.0033 0001595 260.0049 100.0776 15.88879266 70294 UPSat 1 42716U 98067LX 18221.68435692 .00051545 00000-0 26433-3 0 9998 2 42716 51.6312 74.1128 0002030 118.4562 241.6644 15.80733964 70229 SpaceCube 1 42717U 98067LY 18221.81301180 .00025929 00000-0 18581-3 0 9990 2 42717 51.6330 81.0454 0002881 102.7475 257.3845 15.73508456 69382 Hoopoe 1 42718U 98067LZ 18221.80172600 .00036179 00000-0 21917-3 0 9999 2 42718 51.6290 77.1994 0002248 101.5121 258.6131 15.77193887 69435 Challenger 1 42721U 98067MA 18221.83573316 .01319722 11837-4 67434-3 0 9992 2 42721 51.6207 57.4596 0010662 277.6307 82.3092 16.19645957 69396 NJUST-1 1 42722U 98067MB 18221.86597815 .00014392 00000-0 12869-3 0 9998 2 42722 51.6358 87.4835 0005403 80.7841 279.3767 15.68643928 69000 UNSW-EC0 1 42723U 98067MC 18221.64379917 .00041508 00000-0 23794-3 0 9994 2 42723 51.6381 77.7102 0003572 94.2240 265.9169 15.78365838 69092 DUTHsat 1 42724U 98067MD 18221.61856914 .00303011 50477-4 53678-3 0 9990 2 42724 51.6261 62.9527 0004611 265.2150 94.8334 16.01362376 69209 LO-90 1 42725U 98067ME 18221.87648809 .00020298 00000-0 15789-3 0 9998 2 42725 51.6354 83.7858 0004207 86.3215 273.8264 15.71730390 68959 nSIGHT1 1 42726U 98067MF 18221.86608912 .00005101 00000-0 62603-4 0 9993 2 42726 51.6390 96.5765 0005728 78.2286 281.9350 15.62263126 68792 SNUSAT 1B 1 42727U 98067MG 18221.69848780 .00021179 00000-0 16475-3 0 9992 2 42727 51.6337 84.7811 0005242 50.1849 309.9610 15.71692983 68898 QBITO 1 42728U 98067MH 18221.82581291 .00023883 00000-0 16863-3 0 9994 2 42728 51.6373 81.2489 0002447 96.5769 263.5509 15.73909624 68797 Aalto-2 1 42729U 98067MJ 18221.79440811 .00028519 00000-0 19693-3 0 9998 2 42729 51.6336 80.9576 0002214 97.0730 263.0521 15.74318722 68801 SUSat 1 42730U 98067MK 18221.78148674 .00023268 00000-0 17563-3 0 9991 2 42730 51.6346 83.1288 0002586 91.3792 268.7502 15.72353992 68768 i-INSPIRE II 1 42731U 98067ML 18221.61467405 .00047351 00000-0 26111-3 0 9998 2 42731 51.6353 76.6704 0002740 36.9684 323.1506 15.79172311 68888 PolyITAN-2-SAU 1 42732U 98067MM 18221.75218089 .00028015 00000-0 19228-3 0 9993 2 42732 51.6352 80.6413 0004333 39.3163 320.8150 15.74463617 68841 ExAlta-1 1 42734U 98067MP 18221.81967980 .00047857 00000-0 25064-3 0 9993 2 42734 51.6279 74.9608 0003836 73.9767 286.1657 15.80299597 68874 Aoxiang-1 1 42735U 98067MQ 18221.81950211 .00017071 00000-0 14934-3 0 9992 2 42735 51.6346 87.1434 0005696 78.0965 282.0670 15.69020000 70135 BeEagleSat 1 42736U 98067MR 18221.69304914 .00020718 00000-0 16714-3 0 9992 2 42736 51.6344 85.5300 0005284 79.1902 280.9691 15.70835975 68835 CAS-4B 1 42759U 17034B 18221.86543236 .00000126 00000-0 21350-4 0 9997 2 42759 43.0182 148.5736 0008324 79.5138 326.2643 15.09337156 63567 CAS-4A 1 42761U 17034D 18221.78739801 .00000134 00000-0 21765-4 0 9995 2 42761 43.0181 148.7403 0008571 81.1415 14.3128 15.09413118 63547 UCLSat 1 42765U 17036A 18221.79426940 .00000838 00000-0 39761-4 0 9995 2 42765 97.3967 280.7705 0010224 245.0559 114.9615 15.21967386 62862 NIUSat 1 42766U 17036B 18221.77063903 .00000658 00000-0 33200-4 0 9992 2 42766 97.3969 279.9056 0014624 232.8743 127.1157 15.20488378 62675 LituanicaSAT 2 1 42768U 17036D 18221.14366277 .00001330 00000-0 62001-4 0 9994 2 42768 97.3986 279.7077 0014234 237.0767 122.9100 15.21555492 62615 Aalto 1 1 42775U 17036L 18221.06564068 .00000491 00000-0 25360-4 0 9995 2 42775 97.3961 279.4487 0012806 235.5742 124.4283 15.20826043 62539 URSA MAIOR 1 42776U 17036M 18221.70727923 .00000583 00000-0 29417-4 0 9997 2 42776 97.3967 280.1411 0012685 233.1452 126.8621 15.20913213 62638 Max Valier Sat 1 42778U 17036P 18221.19336130 .00000646 00000-0 31838-4 0 9998 2 42778 97.3994 280.0172 0011127 239.8500 120.1634 15.21405654 62569 Pegasus 1 42784U 17036V 18221.70698352 .00000778 00000-0 37327-4 0 9994 2 42784 97.3971 280.5973 0010764 245.6197 114.3916 15.21772023 62653 NUDATSat 1 42787U 17036Y 18221.14407339 .00001125 00000-0 51698-4 0 9992 2 42787 97.3980 280.2981 0010277 246.8931 113.1222 15.22394361 62428 SUCHAI 1 1 42788U 17036Z 18221.58871484 .00000896 00000-0 42183-4 0 9990 2 42788 97.3973 280.6026 0010356 245.6426 114.3730 15.22058556 62711 SKCUBE 1 42789U 17036AA 18220.86641121 .00000826 00000-0 39176-4 0 9995 2 42789 097.3971 279.8820 0010167 248.5868 111.4284 15.22011859062520 VZLUSAT 1 1 42790U 17036AB 18220.73834653 .00001081 00000-0 49757-4 0 9997 2 42790 097.3977 279.9059 0009795 248.7874 111.2316 15.22410470062512 VENTA 1 1 42791U 17036AC 18220.71479757 .00000760 00000-0 36231-4 0 9992 2 42791 097.3970 279.7758 0009805 249.8205 110.1977 15.22056067062498 Robusta 1B 1 42792U 17036AD 18220.76432389 .00000890 00000-0 41808-4 0 9998 2 42792 97.3970 279.8546 0009731 249.9257 110.0932 15.22160400 62522 D-SAT 1 42794U 17036AF 18220.72988469 .00000154 00000-0 18710-4 0 9990 2 42794 97.5871 273.3899 0128574 107.2514 254.2823 14.90903607 61555 BIRD-J 1 42820U 98067MU 18220.83958066 .00019075 00000-0 16082-3 0 9996 2 42820 51.6346 92.5930 0002149 23.9707 336.1390 15.69841665 62122 BIRD-G 1 42821U 98067MV 18221.10245841 .00018604 00000-0 16118-3 0 9995 2 42821 51.6349 92.1032 0002236 27.1092 333.0022 15.69197894 62132 BIRD-M 1 42822U 98067MW 18221.01083722 .00019258 00000-0 16452-3 0 9991 2 42822 51.6352 92.2447 0002235 30.7771 329.3356 15.69513242 62127 BIRD-B 1 42823U 98067MX 18221.63977565 .00019198 00000-0 16292-3 0 9992 2 42823 51.6355 88.9653 0004502 43.3131 316.8219 15.69671968 62221 BIRD-N 1 42824U 98067MY 18221.03496771 .00019018 00000-0 16328-3 0 9993 2 42824 51.6362 92.4464 0004511 41.1887 318.9450 15.69396233 62111 TechnoSat 1 42829U 17042E 18221.78996131 .00000127 00000-0 18278-4 0 9997 2 42829 97.5912 122.1103 0015012 27.0760 333.1238 14.90844973 58310 TOMSK-TPU 120 1 42910U 98067MZ 18221.83402990 .00012168 00000-0 12314-3 0 9997 2 42910 51.6348 93.9919 0005892 59.6054 300.5523 15.65729906 55781 TANYUSHA 1 1 42911U 98067NA 18221.84248693 .00014399 00000-0 13764-3 0 9995 2 42911 51.6355 92.5865 0005336 56.4306 303.7199 15.66986224 55786 TANYUSHA 2 1 42912U 98067NB 18221.86617144 .00013755 00000-0 13533-3 0 9998 2 42912 51.6377 93.4811 0005018 67.6496 292.5031 15.66311645 55793 SFERA 2 1 42913U 98067NC 18221.80820517 .00043727 00000-0 26664-3 0 9994 2 42913 51.6358 82.4830 0003163 98.1001 262.0358 15.76952805 55897 TNS 0-2 1 42914U 98067ND 18221.88600359 .00011738 00000-0 11993-3 0 9999 2 42914 51.6364 94.3883 0005037 62.1075 298.0430 15.65534939 55778 QIKCOM-1 1 42983U 98067NF 18221.82089560 .00002134 00000-0 36312-4 0 9997 2 42983 51.6403 108.2780 0004610 45.0792 315.0573 15.56556997 44573 AO-91 1 43017U 17073E 18221.76105497 .00000448 00000-0 40056-4 0 9991 2 43017 97.7072 150.6623 0261086 97.1801 265.9170 14.78125240 39029 EcAMSat 1 43019U 98067NG 18221.73678304 .00003725 00000-0 56262-4 0 9991 2 43019 51.6402 107.7212 0005080 21.6405 338.4801 15.57538979126890 PICSAT 1 43132U 18004X 18221.79825396 .00000784 00000-0 36666-4 0 9999 2 43132 97.5301 284.6141 0008304 271.1568 88.8716 15.22759295 31875 AO-92 1 43137U 18004AC 18221.85039844 .00000691 00000-0 32648-4 0 9999 2 43137 97.5297 284.6902 0007833 273.1854 86.8486 15.22811709 31876 TianYi 2 1 43155U 18008A 18221.76157817 .00000817 00000-0 53152-4 0 9997 2 43155 97.5221 295.3233 0017313 325.7691 188.5467 15.10638599 30572 Zhou Enlai 1 43156U 18008B 18221.76820926 .00000680 00000-0 45570-4 0 9999 2 43156 97.5262 295.2799 0013996 322.7901 188.8784 15.10102011 30567 TianYi 6 1 43158U 18008D 18221.80387341 .00000399 00000-0 28559-4 0 9990 2 43158 97.5207 295.1258 0012831 318.8183 179.5695 15.09799536 30540 S-Net G 1 43186U 18014G 18221.71462224 -.00000174 00000-0 -10184-4 0 9990 2 43186 97.7212 129.4937 0010663 341.4870 18.5962 14.96483256 28324 S-Net H 1 43187U 18014H 18221.78137880 -.00000182 00000-0 -10868-4 0 9993 2 43187 97.7209 129.5553 0010664 341.2156 18.8670 14.96484090 28339 S-Net J 1 43188U 18014J 18221.71440865 -.00000167 00000-0 -96126-5 0 9992 2 43188 97.7212 129.4955 0010659 341.5294 18.5539 14.96484873 28328 S-Net K 1 43189U 18014K 18221.71455229 -.00000178 00000-0 -10536-4 0 9995 2 43189 97.7209 129.4885 0010648 341.4261 18.6571 14.96483664 26870 FMN 1 1 43192U 18015A 18222.00220631 .00001159 00000-0 52164-4 0 9991 2 43192 97.3624 349.8090 0015950 318.7098 150.2503 15.22982736 28709 Shaonian Xing 1 43199U 18015H 18221.80297592 .00000914 00000-0 40741-4 0 9991 2 43199 97.3410 349.3231 0017248 333.0983 26.9363 15.23816276 28705 1KUNS-PF 1 43466U 98067NP 18221.79555667 .00007935 00000-0 11606-3 0 9998 2 43466 51.6401 110.3551 0000635 77.7921 282.3142 15.56613982 14042 UBAKUSAT 1 43467U 98067NQ 18221.80240180 .00005991 00000-0 90360-4 0 9997 2 43467 51.6404 110.4030 0002197 347.6223 12.4715 15.56295876 14055 Irazu 1 43468U 98067NR 18221.78548756 .00009315 00000-0 13353-3 0 9995 2 43468 51.6398 110.2878 0000648 92.2997 267.8069 15.56920897114031 OBJECT NU 1 43546U 98067NU 18220.79116663 .00009194 00000-0 14170-3 0 9993 2 43546 51.6430 116.3843 0006381 42.9230 317.2257 15.54941231 4014 OBJECT NV 1 43547U 98067NV 18221.88406688 .00001927 00000-0 35509-4 0 9990 2 43547 51.6430 110.9329 0006975 44.4612 315.6924 15.54838288 3866 OBJECT NW 1 43548U 98067NW 18221.30725469 .00006073 00000-0 96753-4 0 9994 2 43548 51.6434 113.8321 0006933 53.7455 306.4176 15.54738665 4223 OBJECT NX 1 43549U 98067NX 18221.17849603 .00006767 00000-0 10690-3 0 9992 2 43549 51.6437 114.4699 0006813 54.1549 306.0073 15.54762277 3764 OBJECT NY 1 43550U 98067NY 18221.88324110 .00008638 00000-0 13339-3 0 9995 2 43550 51.6440 110.9259 0006042 72.9996 287.1668 15.54979678 4339 EnduroSat One 1 43551U 98067NZ 18221.30272813 .00006684 00000-0 10460-3 0 9996 2 43551 51.6434 113.8009 0007291 62.1187 298.0541 15.55044920 4197 EQUISat 1 43552U 98067PA 18221.75258897 .00005949 00000-0 93950-4 0 9991 2 43552 51.6419 111.5541 0007594 62.2615 297.9133 15.55025225 4237 OBJECT PB 1 43553U 98067PB 18221.17432663 .00004972 00000-0 79826-4 0 9994 2 43553 51.6408 114.4449 0008031 60.8506 299.3292 15.54985577 4185 OBJECT PC 1 43554U 98067PC 18220.72372586 .00006902 00000-0 10764-3 0 9992 2 43554 51.6431 116.6838 0007949 57.0812 303.0943 15.55076835 3648 /EX
